This is the latest recevied weather packets stored in our database for station/object K1WJY. If no packets are shown the sender has not sent any weather packets the latest 10 day(s).
| Time | Temp. | Humidity | Pressure | Rain* | Wind** | Luminosity | Snow |
|---|---|---|---|---|---|---|---|
| 1787519825 | 19.44° C | 99% | 1012.5 hPa | 7.87 mm | - | 49 W/m² | - |
| 1787519519 | 19.44° C | 99% | 1012.6 hPa | 1.78 mm | - | 44 W/m² | - |
| 1787519214 | 20° C | 99% | 1012.7 hPa | 3.05 mm | - | 40 W/m² | - |
| 1787518910 | 20° C | 99% | 1013 hPa | 3.05 mm | - | 41 W/m² | - |
| 1787518604 | 20° C | 99% | 1013 hPa | 0 mm | - | 78 W/m² | - |
| 1787518300 | 20° C | 99% | 1013.2 hPa | 0 mm | - | 78 W/m² | - |
| 1787517996 | 20° C | 99% | 1013 hPa | 0 mm | - | 62 W/m² | - |
| 1787517691 | 20° C | 99% | 1013.3 hPa | 0 mm | - | 81 W/m² | - |
| 1787517387 | 20° C | 99% | 1013.3 hPa | 0 mm | - | 89 W/m² | - |
| 1787517084 | 20° C | 99% | 1013.1 hPa | 0 mm | - | 95 W/m² | - |
| 1787516782 | 20° C | 99% | 1013.1 hPa | 0 mm | - | 116 W/m² | - |
| 1787516479 | 20° C | 99% | 1013 hPa | 0 mm | - | 94 W/m² | - |
| 1787516178 | 20° C | 99% | 1013.2 hPa | 0 mm | - | 92 W/m² | - |
| 1787515873 | 20° C | 99% | 1013.2 hPa | 1.27 mm | - | 63 W/m² | - |
| 1787515569 | 20° C | 99% | 1013.4 hPa | 1.27 mm | - | 62 W/m² | - |
| 1787515269 | 20° C | 99% | 1013.4 hPa | 0 mm | - | 59 W/m² | - |
| 1787514964 | 20.56° C | 99% | 1013.4 hPa | 0 mm | - | 62 W/m² | - |
| 1787514662 | 20.56° C | 99% | 1013.4 hPa | 0 mm | - | 60 W/m² | - |
| 1787514361 | 20.56° C | 99% | 1013.3 hPa | 0 mm | - | 97 W/m² | - |
| 1787514061 | 20.56° C | 99% | 1013.6 hPa | 0 mm | - | 77 W/m² | - |
| 1787513756 | 20.56° C | 99% | 1013.6 hPa | 0 mm | - | 101 W/m² | - |
| 1787513452 | 20.56° C | 99% | 1013.5 hPa | 0 mm | - | 108 W/m² | - |
| 1787513148 | 20.56° C | 99% | 1013.3 hPa | 0 mm | - | 160 W/m² | - |
| 1787512845 | 20.56° C | 99% | 1013.6 hPa | 0 mm | - | 155 W/m² | - |
| 1787512540 | 20.56° C | 99% | 1013.6 hPa | 0 mm | - | 172 W/m² | - |
* Rain latest hour (hover to see other rain measurements)
** Current wind speed in m/s (hover to see current wind gust speed)